EA8NE-9 Weather Reports


Display with metric or nautical units.
time (UTC)temp
F
wind
direction
speed
MPH
gust
MPH
rain 1hr
in
rain 24hr
in
rain mn
in
humidity
%
barometer
mb
20220117212946 69 331 0.0 0.0 0.00 0.00 0.00 98 1018.8
20220117210947 69 261 0.0 0.0 0.00 0.00 0.00 98 1018.8
20220117205946 69 269 0.0 0.0 0.00 0.00 0.00 98 1018.8
20220117204946 69 265 0.0 0.0 0.00 0.00 0.00 98 1018.8
20220117202946 69 145 0.0 0.0 0.00 0.00 0.00 98 1018.8
20220117201946 69 172 0.0 0.0 0.00 0.00 0.00 98 1018.8
20220117200946 69 115 0.0 0.0 0.00 0.00 0.00 98 1018.8
20220117194946 69 175 0.0 0.0 0.00 0.00 0.00 98 1018.8
20220117191947 69 159 2.0 2.0 0.00 0.00 0.00 98 1018.8
20220117190946 69 126 0.0 0.0 0.00 0.00 0.00 98 1018.8
20220117183946 69 149 0.0 0.0 0.00 0.00 0.00 98 1018.8
20220117182946 69 150 0.0 0.0 0.00 0.00 0.00 98 1018.8
20220117180946 69 118 0.0 0.0 0.00 0.00 0.00 98 1018.8
20220117175947 61 58 0.0 0.0 0.00 0.00 0.00 88 1018.8
20220117173946 60 171 2.0 3.0 0.00 0.00 0.00 87 1018.8
20220117170947 61 153 2.0 3.0 0.00 0.00 0.00 87 1018.8
20220117163946 60 112 2.0 2.0 0.00 0.00 0.00 88 1018.8
20220117162947 60 123 0.0 3.0 0.00 0.00 0.00 88 1018.8
20220117161946 61 112 5.0 5.0 0.00 0.00 0.00 88 1018.8
20220117160948 60 221 2.0 3.0 0.00 0.00 0.00 88 1018.8
20220117155946 60 148 5.0 7.0 0.00 0.00 0.00 88 1018.8
20220117154947 61 192 5.0 5.0 0.00 0.00 0.00 87 1018.8
20220117153946 61 145 2.0 3.0 0.00 0.00 0.00 88 1018.8
20220117152947 61 165 2.0 3.0 0.00 0.00 0.00 88 1018.8
20220117151948 60 111 5.0 7.0 0.00 0.00 0.00 88 1018.8
20220117141946 61 139 3.0 3.0 0.00 0.00 0.00 88 1018.8
20220117140946 61 167 3.0 3.0 0.00 0.00 0.00 88 1018.8
20220117135947 61 165 5.0 6.0 0.00 0.00 0.00 88 1018.8
20220117132947 61 151 2.0 5.0 0.00 0.00 0.00 88 1018.8
20220117124947 61 142 5.0 7.0 0.00 0.00 0.00 88 1018.8
20220117120947 62 217 6.0 6.0 0.00 0.00 0.00 89 1018.8
20220117114947 62 152 2.0 7.0 0.00 0.00 0.00 89 1018.8
20220117112947 62 163 5.0 5.0 0.00 0.00 0.00 89 1018.8
20220117111947 61 136 3.0 4.0 0.00 0.00 0.00 89 1018.8
20220117110947 62 137 8.0 8.0 0.00 0.00 0.00 89 1018.8
20220117105947 62 150 5.0 5.0 0.00 0.00 0.00 90 1018.8
20220117103947 62 202 3.0 4.0 0.00 0.00 0.00 90 1018.8
20220117101947 62 133 3.0 5.0 0.00 0.00 0.00 89 1018.8
20220117095947 62 149 3.0 5.0 0.00 0.00 0.00 89 1018.8